Regional Weather Roundup
Issued by NWS Green Bay, WI

Home | Current Version | Previous Version | Graphics & Text | Print | Product List | Glossary Off
Versions: 1 2 3 4 5 6 7 8 9 10 11 12 13 14 15 16 17 18 19 20 21 22 23 24 25 26 27 28 29 30 31 32 33 34 35 36 37 38 39 40 41 42 43 44 45 46 47 48 49 50

000
ASUS43 KGRB 251000
RWRGRB

NORTH-CENTRAL AND NORTHEAST WISCONSIN REGIONAL WEATHER ROUNDUP
NATIONAL WEATHER SERVICE GREEN BAY WI
500 AM CDT TUE APR 25 2017

WIZ005-009-010>012-018-019-251100-
NORTH CENTRAL WISCONSIN

CITY           SKY/WX    TMP DP  RH WIND       PRES   REMARKS
IRONWOOD       CLOUDY    53  33  46 SE10G18   29.62F
MANITOWISH WTR NOT AVBL
ARBOR VITAE    NOT AVBL
EAGLE RIVER    NOT AVBL
LAND O LAKES   NOT AVBL
RHINELANDER    MOCLDY    52  34  50 SE7       29.66F
PHILLIPS       CLOUDY    52  35  51 SE3       29.61F
ANTIGO         NOT AVBL
TOMAHAWK       NOT AVBL
MERRILL        NOT AVBL
$$

WIZ013-073-251100-
NORTHEAST WISCONSIN

CITY           SKY/WX    TMP DP  RH WIND       PRES   REMARKS
IRON MOUNTAIN  CLOUDY    44  35  70 SE6       29.71F
MARINETTE      MOCLDY    50  39  66 S8        29.75F
$$

WIZ017-030-035>037-045-251100-
CENTRAL WISCONSIN

CITY           SKY/WX    TMP DP  RH WIND       PRES   REMARKS
MEDFORD        NOT AVBL
WAUSAU         CLOUDY    50  34  54 E8        29.64F
MOSINEE        NOT AVBL
MARSHFIELD     MOCLDY    55  33  43 SE9       29.62S
WISC RAPIDS    MOCLDY    56  35  45 SE8       29.64F
STEVENS POINT  NOT AVBL
WAUPACA        NOT AVBL
SHAWANO        NOT AVBL
CLINTONVILLE   NOT AVBL
WAUTOMA        CLEAR     54  36  50 SE3       29.67F
$$

WIZ038-039-048-051-251100-
FOX VALLEY

CITY           SKY/WX    TMP DP  RH WIND       PRES   REMARKS
NWS GREEN BAY  CLOUDY    52  38  58 SE10      29.71F
APPLETON       NOT AVBL
OSHKOSH        CLOUDY    53  36  52 SE8       29.68F
FOND DU LAC    PTCLDY    53  35  50 SE14      29.68F
$$

WIZ022-050-052-251100-
EAST CENTRAL WISCONSIN

CITY           SKY/WX    TMP DP  RH WIND       PRES   REMARKS
EPHRAIM        NOT AVBL
WASHINGTON ISL NOT AVBL
STURGEON BAY   PTCLDY    49  39  68 SE10      29.75F
MANITOWOC      NOT AVBL
SHEBOYGAN      PTCLDY    50  38  63 SE7       29.73F
$$

LMZ563-521-522-541>543-251100-
LAKESHORE

STATION/POSITION TIME  TEMP    WIND        PRES    VSBY  WAVE
                       AIR SEA DIR/SP/G                  HT/PER
                 (UTC) (F)     (DEG/KT/KT) (MB)    (MI)  (FT/S)
SHEBOYGAN LKSHOR 0900   49     180/ 10/ 11 1007.4R
KEWAUNEE LKSHORE 0930   47      40/  4/  5 1007.2F
NORTHPORT PIER   0940   47     160/  8/ 12 1008.1R
SISTER BAY LKSHO 0906   51     170/ 12/ 17   N/A
CHAMBERS ISLAND  0940   53     120/  9/ 17 1006.8F
MENOMINEE LKSHOR 0924   48     150/ 11/ 13 1006.3
$$




USA.gov is the U.S. government's official web portal to all federal, state and local government web resources and services.